contact:dominique.lefevre@mio.osupytheas.fr, maurice.libes@osupytheas.fr, didier.mallarino@osupytheas.fr
Project:EMSO http://www.emso-fr.org/EMSO-France
Depth: 2436.0 m
Title:EMSO Ligure Ouest : Data MII capteur MICROCAT
DateTime_Computer,Latitude,Longitude,Temperature,Conductivity,Pressure,DateTime_Instrument
DateTime_Computer,Latitude,Longitude,degC,S m-1,dbar,DateTime_Instrument
2020-04-03T00:02:49Z,42.805,6.029,13.2995,4.59989,2470.063,2020-4-03T02:03:27Z
2020-04-03T00:05:52Z,42.805,6.029,13.3002,4.59989,2470.11,2020-4-03T02:06:30Z
2020-04-03T00:08:55Z,42.805,6.029,13.3011,4.59989,2470.077,2020-4-03T02:09:34Z
2020-04-03T00:11:59Z,42.805,6.029,13.2992,4.59995,2470.087,2020-4-03T02:12:37Z
2020-04-03T00:15:02Z,42.805,6.029,13.2993,4.59989,2470.124,2020-4-03T02:15:40Z
2020-04-03T00:18:05Z,42.805,6.029,13.2998,4.59991,2470.063,2020-4-03T02:18:44Z
2020-04-03T00:21:08Z,42.805,6.029,13.3002,4.59986,2470.087,2020-4-03T02:21:47Z
2020-04-03T00:24:11Z,42.805,6.029,13.2990,4.59990,2470.087,2020-4-03T02:24:50Z
2020-04-03T00:27:15Z,42.805,6.029,13.2983,4.59994,2470.1,2020-4-03T02:27:53Z
2020-04-03T00:30:18Z,42.805,6.029,13.2993,4.59986,2470.087,2020-4-03T02:30:56Z
2020-04-03T00:33:21Z,42.805,6.029,13.3004,4.59990,2470.04,2020-4-03T02:34:00Z
2020-04-03T00:36:24Z,42.805,6.029,13.2994,4.59990,2470.147,2020-4-03T02:37:03Z
2020-04-03T00:39:28Z,42.805,6.029,13.2988,4.59995,2470.1,2020-4-03T02:40:07Z
2020-04-03T00:42:31Z,42.805,6.029,13.2987,4.59998,2470.087,2020-4-03T02:43:10Z
2020-04-03T00:45:34Z,42.805,6.029,13.2998,4.59994,2470.087,2020-4-03T02:46:13Z
2020-04-03T00:48:38Z,42.805,6.029,13.2997,4.59991,2470.1,2020-4-03T02:49:16Z
2020-04-03T00:51:41Z,42.805,6.029,13.2994,4.59993,2470.11,2020-4-03T02:52:19Z
2020-04-03T00:54:44Z,42.805,6.029,13.2995,4.59989,2470.077,2020-4-03T02:55:23Z
2020-04-03T00:57:47Z,42.805,6.029,13.2998,4.59994,2470.11,2020-4-03T02:58:26Z
2020-04-03T01:00:51Z,42.805,6.029,13.2998,4.59989,2470.11,2020-4-03T03:01:29Z
2020-04-03T01:03:54Z,42.805,6.029,13.2990,4.59990,2470.087,2020-4-03T03:04:32Z
2020-04-03T01:06:57Z,42.805,6.029,13.2995,4.59986,2470.11,2020-4-03T03:07:36Z
2020-04-03T01:10:00Z,42.805,6.029,13.3000,4.59990,2470.133,2020-4-03T03:10:39Z
2020-04-03T01:13:04Z,42.805,6.029,13.3002,4.59979,2470.1,2020-4-03T03:13:42Z
2020-04-03T01:16:07Z,42.805,6.029,13.2997,4.59998,2470.124,2020-4-03T03:16:45Z
2020-04-03T01:19:10Z,42.805,6.029,13.2994,4.59995,2470.124,2020-4-03T03:19:49Z
2020-04-03T01:22:13Z,42.805,6.029,13.3000,4.59993,2470.124,2020-4-03T03:22:52Z
2020-04-03T01:25:17Z,42.805,6.029,13.2990,4.59991,2470.087,2020-4-03T03:25:55Z
2020-04-03T01:28:20Z,42.805,6.029,13.2988,4.59988,2470.124,2020-4-03T03:28:59Z
2020-04-03T01:31:23Z,42.805,6.029,13.3015,4.59988,2470.124,2020-4-03T03:32:02Z
2020-04-03T01:34:27Z,42.805,6.029,13.2994,4.59988,2470.133,2020-4-03T03:35:05Z
2020-04-03T01:37:30Z,42.805,6.029,13.2999,4.59989,2470.11,2020-4-03T03:38:08Z
2020-04-03T01:40:33Z,42.805,6.029,13.2991,4.59988,2470.133,2020-4-03T03:41:12Z
2020-04-03T01:43:36Z,42.805,6.029,13.2984,4.59986,2470.156,2020-4-03T03:44:15Z
2020-04-03T01:46:40Z,42.805,6.029,13.2984,4.59983,2470.147,2020-4-03T03:47:18Z
2020-04-03T01:49:43Z,42.805,6.029,13.2983,4.59984,2470.124,2020-4-03T03:50:21Z
2020-04-03T01:52:46Z,42.805,6.029,13.2991,4.59981,2470.18,2020-4-03T03:53:25Z
2020-04-03T01:55:49Z,42.805,6.029,13.2992,4.59986,2470.133,2020-4-03T03:56:28Z
2020-04-03T01:58:53Z,42.805,6.029,13.2983,4.59991,2470.11,2020-4-03T03:59:31Z
2020-04-03T02:01:56Z,42.805,6.029,13.2996,4.59990,2470.133,2020-4-03T04:02:34Z
2020-04-03T02:04:59Z,42.805,6.029,13.2989,4.59981,2470.147,2020-4-03T04:05:38Z
2020-04-03T02:08:02Z,42.805,6.029,13.2993,4.59996,2470.133,2020-4-03T04:08:41Z
2020-04-03T02:11:05Z,42.805,6.029,13.2988,4.59988,2470.147,2020-4-03T04:11:44Z
2020-04-03T02:14:09Z,42.805,6.029,13.2986,4.59983,2470.11,2020-4-03T04:14:47Z
2020-04-03T02:17:12Z,42.805,6.029,13.2988,4.59985,2470.11,2020-4-03T04:17:50Z
2020-04-03T02:20:15Z,42.805,6.029,13.2989,4.59990,2470.147,2020-4-03T04:20:54Z
2020-04-03T02:23:18Z,42.805,6.029,13.2988,4.59987,2470.11,2020-4-03T04:23:57Z
2020-04-03T02:26:22Z,42.805,6.029,13.2994,4.59989,2470.133,2020-4-03T04:27:00Z
2020-04-03T02:29:25Z,42.805,6.029,13.2990,4.59987,2470.147,2020-4-03T04:30:03Z
2020-04-03T02:32:28Z,42.805,6.029,13.2988,4.59983,2470.147,2020-4-03T04:33:07Z
2020-04-03T02:35:31Z,42.805,6.029,13.2978,4.59982,2470.133,2020-4-03T04:36:10Z
2020-04-03T02:38:34Z,42.805,6.029,13.2984,4.59981,2470.133,2020-4-03T04:39:13Z
2020-04-03T02:41:38Z,42.805,6.029,13.2997,4.59985,2470.11,2020-4-03T04:42:16Z
2020-04-03T02:44:41Z,42.805,6.029,13.2986,4.59989,2470.156,2020-4-03T04:45:20Z
2020-04-03T02:47:44Z,42.805,6.029,13.2985,4.59985,2470.087,2020-4-03T04:48:23Z
2020-04-03T02:50:48Z,42.805,6.029,13.2990,4.59986,2470.124,2020-4-03T04:51:26Z
2020-04-03T02:53:51Z,42.805,6.029,13.2990,4.59981,2470.133,2020-4-03T04:54:29Z
2020-04-03T02:56:54Z,42.805,6.029,13.2989,4.59983,2470.11,2020-4-03T04:57:33Z
2020-04-03T02:59:57Z,42.805,6.029,13.2990,4.59986,2470.11,2020-4-03T05:00:36Z
2020-04-03T03:03:01Z,42.805,6.029,13.2991,4.59987,2470.119,2020-4-03T05:03:39Z
2020-04-03T03:06:04Z,42.805,6.029,13.2998,4.59985,2470.133,2020-4-03T05:06:42Z
2020-04-03T03:09:07Z,42.805,6.029,13.3001,4.59986,2470.133,2020-4-03T05:09:46Z
2020-04-03T03:12:10Z,42.805,6.029,13.2982,4.59986,2470.133,2020-4-03T05:12:49Z
2020-04-03T03:15:14Z,42.805,6.029,13.2991,4.59982,2470.124,2020-4-03T05:15:52Z
2020-04-03T03:18:17Z,42.805,6.029,13.2985,4.59985,2470.156,2020-4-03T05:18:55Z
2020-04-03T03:21:20Z,42.805,6.029,13.2989,4.59983,2470.171,2020-4-03T05:21:59Z
2020-04-03T03:24:23Z,42.805,6.029,13.2982,4.59986,2470.171,2020-4-03T05:25:02Z
2020-04-03T03:27:27Z,42.805,6.029,13.2991,4.59988,2470.171,2020-4-03T05:28:05Z
2020-04-03T03:30:30Z,42.805,6.029,13.2987,4.59983,2470.124,2020-4-03T05:31:09Z
2020-04-03T03:33:33Z,42.805,6.029,13.3005,4.59985,2470.147,2020-4-03T05:34:12Z
2020-04-03T03:36:36Z,42.805,6.029,13.3006,4.59992,2470.11,2020-4-03T05:37:15Z
2020-04-03T03:39:40Z,42.805,6.029,13.2998,4.59988,2470.133,2020-4-03T05:40:18Z
2020-04-03T03:42:43Z,42.805,6.029,13.2983,4.59989,2470.147,2020-4-03T05:43:21Z
2020-04-03T03:45:46Z,42.805,6.029,13.2987,4.59985,2470.11,2020-4-03T05:46:25Z
2020-04-03T03:48:49Z,42.805,6.029,13.2990,4.59989,2470.147,2020-4-03T05:49:28Z
2020-04-03T03:51:53Z,42.805,6.029,13.2998,4.59995,2470.156,2020-4-03T05:52:31Z
2020-04-03T03:54:56Z,42.805,6.029,13.2982,4.59989,2470.171,2020-4-03T05:55:34Z
2020-04-03T03:57:59Z,42.805,6.029,13.2992,4.59989,2470.147,2020-4-03T05:58:38Z
2020-04-03T04:01:02Z,42.805,6.029,13.2986,4.59986,2470.156,2020-4-03T06:01:41Z
2020-04-03T04:04:06Z,42.805,6.029,13.2992,4.59991,2470.147,2020-4-03T06:04:45Z
2020-04-03T04:07:09Z,42.805,6.029,13.2991,4.59999,2470.133,2020-4-03T06:07:48Z
2020-04-03T04:10:12Z,42.805,6.029,13.2982,4.59986,2470.133,2020-4-03T06:10:51Z
2020-04-03T04:13:16Z,42.805,6.029,13.2987,4.59988,2470.133,2020-4-03T06:13:54Z
2020-04-03T04:16:19Z,42.805,6.029,13.2990,4.59984,2470.124,2020-4-03T06:16:57Z
2020-04-03T04:19:22Z,42.805,6.029,13.2993,4.59992,2470.147,2020-4-03T06:20:01Z
2020-04-03T04:22:25Z,42.805,6.029,13.2985,4.59988,2470.171,2020-4-03T06:23:04Z
2020-04-03T04:25:29Z,42.805,6.029,13.2987,4.59992,2470.133,2020-4-03T06:26:07Z
2020-04-03T04:28:32Z,42.805,6.029,13.2993,4.59987,2470.124,2020-4-03T06:29:10Z
2020-04-03T04:31:35Z,42.805,6.029,13.2995,4.59984,2470.133,2020-4-03T06:32:14Z
2020-04-03T04:34:38Z,42.805,6.029,13.2989,4.59991,2470.147,2020-4-03T06:35:17Z
2020-04-03T04:37:42Z,42.805,6.029,13.2994,4.59988,2470.133,2020-4-03T06:38:20Z
2020-04-03T04:40:45Z,42.805,6.029,13.2997,4.59986,2470.147,2020-4-03T06:41:23Z
2020-04-03T04:43:48Z,42.805,6.029,13.2987,4.59987,2470.11,2020-4-03T06:44:27Z
2020-04-03T04:46:51Z,42.805,6.029,13.2986,4.59986,2470.133,2020-4-03T06:47:30Z
2020-04-03T04:49:55Z,42.805,6.029,13.2991,4.59986,2470.147,2020-4-03T06:50:33Z
2020-04-03T04:52:58Z,42.805,6.029,13.2996,4.59989,2470.147,2020-4-03T06:53:37Z
2020-04-03T04:56:01Z,42.805,6.029,13.2986,4.59993,2470.156,2020-4-03T06:56:40Z
2020-04-03T04:59:04Z,42.805,6.029,13.2995,4.59988,2470.133,2020-4-03T06:59:43Z
2020-04-03T05:02:08Z,42.805,6.029,13.2989,4.59988,2470.171,2020-4-03T07:02:46Z
2020-04-03T05:05:11Z,42.805,6.029,13.2992,4.59988,2470.133,2020-4-03T07:05:49Z
2020-04-03T05:08:14Z,42.805,6.029,13.2993,4.59996,2470.156,2020-4-03T07:08:53Z
2020-04-03T05:11:17Z,42.805,6.029,13.3007,4.59997,2470.147,2020-4-03T07:11:56Z
2020-04-03T05:14:21Z,42.805,6.029,13.2990,4.59992,2470.147,2020-4-03T07:14:59Z
2020-04-03T05:17:24Z,42.805,6.029,13.2998,4.59992,2470.124,2020-4-03T07:18:02Z
2020-04-03T05:20:27Z,42.805,6.029,13.3004,4.59996,2470.133,2020-4-03T07:21:05Z
2020-04-03T05:23:30Z,42.805,6.029,13.2990,4.59990,2470.156,2020-4-03T07:24:09Z
2020-04-03T05:26:33Z,42.805,6.029,13.2991,4.60022,2470.156,2020-4-03T07:27:12Z
2020-04-03T05:29:37Z,42.805,6.029,13.3014,4.59991,2470.147,2020-4-03T07:30:15Z
2020-04-03T05:32:40Z,42.805,6.029,13.3003,4.59996,2470.147,2020-4-03T07:33:18Z
2020-04-03T05:35:43Z,42.805,6.029,13.2996,4.59998,2470.11,2020-4-03T07:36:22Z
2020-04-03T05:38:46Z,42.805,6.029,13.2994,4.59986,2470.156,2020-4-03T07:39:25Z
2020-04-03T05:41:50Z,42.805,6.029,13.2998,4.59987,2470.087,2020-4-03T07:42:28Z
2020-04-03T05:44:53Z,42.805,6.029,13.2995,4.59988,2470.133,2020-4-03T07:45:31Z
2020-04-03T05:47:56Z,42.805,6.029,13.2992,4.59990,2470.11,2020-4-03T07:48:35Z
2020-04-03T05:50:59Z,42.805,6.029,13.3011,4.60000,2470.124,2020-4-03T07:51:38Z
2020-04-03T05:54:03Z,42.805,6.029,13.3013,4.59999,2470.133,2020-4-03T07:54:41Z
2020-04-03T05:57:06Z,42.805,6.029,13.3004,4.59991,2470.087,2020-4-03T07:57:44Z
2020-04-03T06:00:09Z,42.805,6.029,13.2997,4.59989,2470.11,2020-4-03T08:00:48Z
2020-04-03T06:03:12Z,42.805,6.029,13.2989,4.59987,2470.147,2020-4-03T08:03:51Z
2020-04-03T06:06:16Z,42.805,6.029,13.2990,4.59994,2470.124,2020-4-03T08:06:54Z
2020-04-03T06:09:19Z,42.805,6.029,13.3002,4.59994,2470.11,2020-4-03T08:09:58Z
2020-04-03T06:12:22Z,42.805,6.029,13.3001,4.59993,2470.133,2020-4-03T08:13:01Z
2020-04-03T06:15:25Z,42.805,6.029,13.2999,4.59995,2470.11,2020-4-03T08:16:04Z
2020-04-03T06:18:29Z,42.805,6.029,13.3001,4.59995,2470.156,2020-4-03T08:19:07Z
2020-04-03T06:21:32Z,42.805,6.029,13.2994,4.59992,2470.11,2020-4-03T08:22:11Z
2020-04-03T06:24:35Z,42.805,6.029,13.2997,4.59991,2470.124,2020-4-03T08:25:14Z
2020-04-03T06:27:38Z,42.805,6.029,13.2996,4.59983,2470.133,2020-4-03T08:28:17Z
2020-04-03T06:30:42Z,42.805,6.029,13.3000,4.59992,2470.087,2020-4-03T08:31:20Z
2020-04-03T06:33:45Z,42.805,6.029,13.2998,4.59989,2470.087,2020-4-03T08:34:23Z
2020-04-03T06:36:48Z,42.805,6.029,13.2995,4.59987,2470.124,2020-4-03T08:37:27Z
2020-04-03T06:39:51Z,42.805,6.029,13.2998,4.59994,2470.124,2020-4-03T08:40:30Z
2020-04-03T06:42:55Z,42.805,6.029,13.2995,4.59987,2470.1,2020-4-03T08:43:33Z
2020-04-03T06:45:58Z,42.805,6.029,13.3010,4.59991,2470.124,2020-4-03T08:46:37Z
2020-04-03T06:49:01Z,42.805,6.029,13.2999,4.59998,2470.124,2020-4-03T08:49:40Z
2020-04-03T06:52:04Z,42.805,6.029,13.3000,4.59996,2470.124,2020-4-03T08:52:43Z
2020-04-03T06:55:08Z,42.805,6.029,13.3013,4.59996,2470.077,2020-4-03T08:55:46Z
2020-04-03T06:58:11Z,42.805,6.029,13.3020,4.59994,2470.087,2020-4-03T08:58:49Z
2020-04-03T07:01:14Z,42.805,6.029,13.2993,4.59998,2470.063,2020-4-03T09:01:53Z
2020-04-03T07:04:17Z,42.805,6.029,13.3008,4.59994,2470.087,2020-4-03T09:04:56Z
2020-04-03T07:07:21Z,42.805,6.029,13.3009,4.59991,2470.1,2020-4-03T09:07:59Z
2020-04-03T07:10:24Z,42.805,6.029,13.3003,4.59989,2470.087,2020-4-03T09:11:02Z
2020-04-03T07:13:27Z,42.805,6.029,13.3000,4.59981,2470.017,2020-4-03T09:14:06Z
2020-04-03T07:16:30Z,42.805,6.029,13.2991,4.59991,2470.1,2020-4-03T09:17:09Z
2020-04-03T07:19:33Z,42.805,6.029,13.2992,4.59996,2470.087,2020-4-03T09:20:12Z
2020-04-03T07:22:37Z,42.805,6.029,13.3004,4.59992,2470.124,2020-4-03T09:23:15Z
2020-04-03T07:25:40Z,42.805,6.029,13.2990,4.59994,2470.063,2020-4-03T09:26:18Z
2020-04-03T07:28:43Z,42.805,6.029,13.2997,4.59987,2470.133,2020-4-03T09:29:22Z
2020-04-03T07:31:46Z,42.805,6.029,13.2990,4.59991,2470.063,2020-4-03T09:32:25Z
2020-04-03T07:34:50Z,42.805,6.029,13.3014,4.59986,2470.087,2020-4-03T09:35:28Z
2020-04-03T07:37:53Z,42.805,6.029,13.2988,4.59991,2470.04,2020-4-03T09:38:31Z
2020-04-03T07:40:56Z,42.805,6.029,13.2989,4.59995,2470.1,2020-4-03T09:41:35Z
2020-04-03T07:43:59Z,42.805,6.029,13.3002,4.59996,2470.1,2020-4-03T09:44:38Z
2020-04-03T07:47:02Z,42.805,6.029,13.2996,4.60005,2470.1,2020-4-03T09:47:41Z
2020-04-03T07:50:06Z,42.805,6.029,13.3020,4.59995,2470.11,2020-4-03T09:50:44Z
2020-04-03T07:53:09Z,42.805,6.029,13.2994,4.59997,2470.087,2020-4-03T09:53:48Z
2020-04-03T07:56:12Z,42.805,6.029,13.3000,4.59991,2470.049,2020-4-03T09:56:51Z
2020-04-03T07:59:15Z,42.805,6.029,13.2995,4.59987,2470.087,2020-4-03T09:59:54Z
2020-04-03T08:02:19Z,42.805,6.029,13.2998,4.59988,2470.087,2020-4-03T10:02:57Z
2020-04-03T08:05:22Z,42.805,6.029,13.2994,4.59989,2470.1,2020-4-03T10:06:01Z
2020-04-03T08:08:25Z,42.805,6.029,13.2986,4.59997,2470.063,2020-4-03T10:09:04Z
2020-04-03T08:11:28Z,42.805,6.029,13.2999,4.59988,2470.087,2020-4-03T10:12:07Z
2020-04-03T08:14:32Z,42.805,6.029,13.2991,4.59990,2470.1,2020-4-03T10:15:10Z
2020-04-03T08:17:35Z,42.805,6.029,13.2990,4.59990,2470.063,2020-4-03T10:18:13Z
2020-04-03T08:20:38Z,42.805,6.029,13.2996,4.59987,2470.063,2020-4-03T10:21:17Z
2020-04-03T08:23:41Z,42.805,6.029,13.2988,4.59989,2470.063,2020-4-03T10:24:20Z
2020-04-03T08:26:45Z,42.805,6.029,13.3001,4.59982,2470.087,2020-4-03T10:27:23Z
2020-04-03T08:29:48Z,42.805,6.029,13.2988,4.59989,2470.063,2020-4-03T10:30:26Z
2020-04-03T08:32:51Z,42.805,6.029,13.2994,4.59984,2470.063,2020-4-03T10:33:30Z
2020-04-03T08:35:54Z,42.805,6.029,13.3006,4.59988,2470.04,2020-4-03T10:36:33Z
2020-04-03T08:38:57Z,42.805,6.029,13.2995,4.59982,2470.063,2020-4-03T10:39:36Z
2020-04-03T08:42:01Z,42.805,6.029,13.2995,4.59992,2470.053,2020-4-03T10:42:39Z
2020-04-03T08:45:04Z,42.805,6.029,13.2995,4.59993,2470.077,2020-4-03T10:45:43Z
2020-04-03T08:48:07Z,42.805,6.029,13.2998,4.59987,2470.063,2020-4-03T10:48:46Z
2020-04-03T08:51:11Z,42.805,6.029,13.2993,4.59985,2470.077,2020-4-03T10:51:49Z
2020-04-03T08:54:14Z,42.805,6.029,13.2993,4.59987,2470.063,2020-4-03T10:54:53Z
2020-04-03T08:57:17Z,42.805,6.029,13.2987,4.59991,2470.077,2020-4-03T10:57:56Z
2020-04-03T09:00:20Z,42.805,6.029,13.2987,4.59988,2470.04,2020-4-03T11:00:59Z
2020-04-03T09:03:24Z,42.805,6.029,13.2997,4.59988,2470.077,2020-4-03T11:04:02Z
2020-04-03T09:06:27Z,42.805,6.029,13.2994,4.59991,2470.04,2020-4-03T11:07:05Z
2020-04-03T09:09:30Z,42.805,6.029,13.3008,4.59997,2470.077,2020-4-03T11:10:09Z
2020-04-03T09:12:33Z,42.805,6.029,13.2993,4.59995,2470.053,2020-4-03T11:13:12Z
2020-04-03T09:15:37Z,42.805,6.029,13.3009,4.59987,2470.063,2020-4-03T11:16:15Z
2020-04-03T09:18:40Z,42.805,6.029,13.2991,4.59989,2470.063,2020-4-03T11:19:18Z
2020-04-03T09:21:43Z,42.805,6.029,13.2994,4.59984,2470.063,2020-4-03T11:22:22Z
2020-04-03T09:24:46Z,42.805,6.029,13.3006,4.59984,2470.04,2020-4-03T11:25:25Z
2020-04-03T09:27:50Z,42.805,6.029,13.2992,4.59986,2470.017,2020-4-03T11:28:29Z
2020-04-03T09:30:53Z,42.805,6.029,13.2994,4.59983,2470.063,2020-4-03T11:31:32Z
2020-04-03T09:33:56Z,42.805,6.029,13.2981,4.59991,2470.053,2020-4-03T11:34:35Z
2020-04-03T09:37:00Z,42.805,6.029,13.2993,4.59985,2470.077,2020-4-03T11:37:38Z
2020-04-03T09:40:03Z,42.805,6.029,13.2994,4.59979,2470.063,2020-4-03T11:40:41Z
2020-04-03T09:43:06Z,42.805,6.029,13.2989,4.59990,2470.063,2020-4-03T11:43:45Z
2020-04-03T09:46:09Z,42.805,6.029,13.2987,4.59988,2470.053,2020-4-03T11:46:48Z
2020-04-03T09:49:13Z,42.805,6.029,13.2988,4.59993,2470.04,2020-4-03T11:49:51Z
2020-04-03T09:52:16Z,42.805,6.029,13.2992,4.59992,2470.04,2020-4-03T11:52:54Z
2020-04-03T09:55:19Z,42.805,6.029,13.2994,4.59986,2470.04,2020-4-03T11:55:58Z
2020-04-03T09:58:22Z,42.805,6.029,13.2995,4.59991,2470.04,2020-4-03T11:59:01Z
2020-04-03T10:01:25Z,42.805,6.029,13.2989,4.59991,2470.04,2020-4-03T12:02:04Z
2020-04-03T10:04:29Z,42.805,6.029,13.2993,4.59983,2470.053,2020-4-03T12:05:07Z
2020-04-03T10:07:32Z,42.805,6.029,13.2992,4.59993,2470.04,2020-4-03T12:08:11Z
2020-04-03T10:10:35Z,42.805,6.029,13.2990,4.59986,2470.03,2020-4-03T12:11:14Z
2020-04-03T10:13:38Z,42.805,6.029,13.2989,4.59990,2470.053,2020-4-03T12:14:17Z
2020-04-03T10:16:42Z,42.805,6.029,13.2998,4.59989,2470.03,2020-4-03T12:17:20Z
2020-04-03T10:19:45Z,42.805,6.029,13.2986,4.59991,2470.04,2020-4-03T12:20:24Z
2020-04-03T10:22:48Z,42.805,6.029,13.2990,4.59993,2470.017,2020-4-03T12:23:27Z
2020-04-03T10:25:52Z,42.805,6.029,13.2986,4.59989,2470.03,2020-4-03T12:26:30Z
2020-04-03T10:28:55Z,42.805,6.029,13.2993,4.59991,2470.017,2020-4-03T12:29:33Z
2020-04-03T10:31:58Z,42.805,6.029,13.2991,4.60004,2470.053,2020-4-03T12:32:37Z
2020-04-03T10:35:01Z,42.805,6.029,13.2988,4.59991,2470.017,2020-4-03T12:35:40Z
2020-04-03T10:38:05Z,42.805,6.029,13.3017,4.59995,2470.053,2020-4-03T12:38:43Z
2020-04-03T10:41:08Z,42.805,6.029,13.2991,4.59986,2470.053,2020-4-03T12:41:46Z
2020-04-03T10:44:11Z,42.805,6.029,13.2990,4.59986,2470.017,2020-4-03T12:44:50Z
2020-04-03T10:47:14Z,42.805,6.029,13.2993,4.59989,2470.04,2020-4-03T12:47:53Z
2020-04-03T10:50:18Z,42.805,6.029,13.2989,4.59987,2470.053,2020-4-03T12:50:56Z
2020-04-03T10:53:21Z,42.805,6.029,13.2988,4.59986,2470.053,2020-4-03T12:53:59Z
2020-04-03T10:56:24Z,42.805,6.029,13.3008,4.59997,2470.003,2020-4-03T12:57:03Z
2020-04-03T10:59:27Z,42.805,6.029,13.2997,4.59996,2470.04,2020-4-03T13:00:06Z
2020-04-03T11:02:30Z,42.805,6.029,13.2994,4.59991,2470.03,2020-4-03T13:03:09Z
2020-04-03T11:05:34Z,42.805,6.029,13.2998,4.59994,2470.04,2020-4-03T13:06:12Z
2020-04-03T11:08:37Z,42.805,6.029,13.3023,4.59994,2470.03,2020-4-03T13:09:16Z
2020-04-03T11:11:40Z,42.805,6.029,13.2990,4.59999,2470.053,2020-4-03T13:12:19Z
2020-04-03T11:14:44Z,42.805,6.029,13.3003,4.59989,2470.017,2020-4-03T13:15:22Z
2020-04-03T11:17:47Z,42.805,6.029,13.2988,4.59999,2470.017,2020-4-03T13:18:26Z
2020-04-03T11:20:50Z,42.805,6.029,13.2997,4.60003,2470.04,2020-4-03T13:21:29Z
2020-04-03T11:23:54Z,42.805,6.029,13.2998,4.59995,2470.03,2020-4-03T13:24:32Z
2020-04-03T11:26:57Z,42.805,6.029,13.3002,4.59991,2470.007,2020-4-03T13:27:35Z
2020-04-03T11:30:00Z,42.805,6.029,13.2996,4.59991,2470.007,2020-4-03T13:30:39Z
2020-04-03T11:33:03Z,42.805,6.029,13.2991,4.59987,2470.03,2020-4-03T13:33:42Z
2020-04-03T11:36:07Z,42.805,6.029,13.2995,4.59991,2470.017,2020-4-03T13:36:45Z
2020-04-03T11:39:10Z,42.805,6.029,13.3010,4.59988,2470.03,2020-4-03T13:39:49Z
2020-04-03T11:42:13Z,42.805,6.029,13.3004,4.59994,2470.03,2020-4-03T13:42:52Z
2020-04-03T11:45:17Z,42.805,6.029,13.2995,4.59993,2470.017,2020-4-03T13:45:55Z
2020-04-03T11:48:20Z,42.805,6.029,13.3000,4.59996,2470.017,2020-4-03T13:48:59Z
2020-04-03T11:51:23Z,42.805,6.029,13.3004,4.59991,2470.04,2020-4-03T13:52:02Z
2020-04-03T11:54:26Z,42.805,6.029,13.2997,4.59991,2470.017,2020-4-03T13:55:05Z
2020-04-03T11:57:30Z,42.805,6.029,13.2995,4.59993,2470.03,2020-4-03T13:58:08Z
2020-04-03T12:00:33Z,42.805,6.029,13.3001,4.59996,2470.03,2020-4-03T14:01:11Z
2020-04-03T12:03:36Z,42.805,6.029,13.2998,4.59996,2470.053,2020-4-03T14:04:15Z
2020-04-03T12:06:39Z,42.805,6.029,13.3003,4.59996,2470.04,2020-4-03T14:07:18Z
2020-04-03T12:09:43Z,42.805,6.029,13.2989,4.59994,2470.04,2020-4-03T14:10:21Z
2020-04-03T12:12:46Z,42.805,6.029,13.2997,4.59999,2470.03,2020-4-03T14:13:24Z
2020-04-03T12:15:49Z,42.805,6.029,13.3000,4.59997,2470.063,2020-4-03T14:16:28Z
2020-04-03T12:18:52Z,42.805,6.029,13.2999,4.59995,2470.03,2020-4-03T14:19:31Z
2020-04-03T12:21:56Z,42.805,6.029,13.3021,4.59997,2470.053,2020-4-03T14:22:34Z
2020-04-03T12:24:59Z,42.805,6.029,13.3009,4.59993,2470.03,2020-4-03T14:25:37Z
2020-04-03T12:28:02Z,42.805,6.029,13.3000,4.59996,2470.04,2020-4-03T14:28:41Z
2020-04-03T12:31:05Z,42.805,6.029,13.3004,4.59997,2470.077,2020-4-03T14:31:44Z
2020-04-03T12:34:09Z,42.805,6.029,13.2997,4.59996,2470.017,2020-4-03T14:34:47Z
2020-04-03T12:37:12Z,42.805,6.029,13.3012,4.59991,2470.04,2020-4-03T14:37:50Z
2020-04-03T12:40:15Z,42.805,6.029,13.2998,4.59997,2470.03,2020-4-03T14:40:54Z
2020-04-03T12:43:18Z,42.805,6.029,13.3001,4.59999,2470.077,2020-4-03T14:43:57Z
2020-04-03T12:46:21Z,42.805,6.029,13.3011,4.59992,2470.017,2020-4-03T14:47:00Z
2020-04-03T12:49:25Z,42.805,6.029,13.2993,4.59996,2470.063,2020-4-03T14:50:03Z
2020-04-03T12:52:28Z,42.805,6.029,13.3007,4.59999,2470.04,2020-4-03T14:53:07Z
2020-04-03T12:55:31Z,42.805,6.029,13.3012,4.60007,2470.03,2020-4-03T14:56:10Z
2020-04-03T12:58:34Z,42.805,6.029,13.3003,4.59995,2470.03,2020-4-03T14:59:13Z
2020-04-03T13:01:38Z,42.805,6.029,13.3002,4.59996,2470.053,2020-4-03T15:02:16Z
2020-04-03T13:04:41Z,42.805,6.029,13.3021,4.59992,2470.063,2020-4-03T15:05:19Z
2020-04-03T13:07:44Z,42.805,6.029,13.3021,4.59997,2470.063,2020-4-03T15:08:23Z
2020-04-03T13:10:47Z,42.805,6.029,13.3011,4.59998,2470.053,2020-4-03T15:11:26Z
2020-04-03T13:13:51Z,42.805,6.029,13.3009,4.60001,2470.063,2020-4-03T15:14:29Z
2020-04-03T13:16:54Z,42.805,6.029,13.3004,4.59996,2470.053,2020-4-03T15:17:33Z
2020-04-03T13:19:58Z,42.805,6.029,13.3008,4.59995,2470.04,2020-4-03T15:20:36Z
2020-04-03T13:23:01Z,42.805,6.029,13.3006,4.59991,2470.1,2020-4-03T15:23:39Z
2020-04-03T13:26:04Z,42.805,6.029,13.3000,4.59996,2470.077,2020-4-03T15:26:43Z
2020-04-03T13:29:07Z,42.805,6.029,13.3002,4.59993,2470.04,2020-4-03T15:29:46Z
2020-04-03T13:32:10Z,42.805,6.029,13.3000,4.59999,2470.03,2020-4-03T15:32:49Z
2020-04-03T13:35:14Z,42.805,6.029,13.3006,4.59996,2470.063,2020-4-03T15:35:52Z
2020-04-03T13:38:17Z,42.805,6.029,13.2998,4.59999,2470.077,2020-4-03T15:38:56Z
2020-04-03T13:41:20Z,42.805,6.029,13.3002,4.59996,2470.053,2020-4-03T15:41:59Z
2020-04-03T13:44:23Z,42.805,6.029,13.3003,4.60006,2470.053,2020-4-03T15:45:02Z
2020-04-03T13:47:27Z,42.805,6.029,13.3008,4.59999,2470.04,2020-4-03T15:48:05Z
2020-04-03T13:50:30Z,42.805,6.029,13.3021,4.59993,2470.063,2020-4-03T15:51:09Z
2020-04-03T13:53:33Z,42.805,6.029,13.2996,4.59998,2470.026,2020-4-03T15:54:12Z
2020-04-03T13:56:36Z,42.805,6.029,13.3009,4.59988,2470.063,2020-4-03T15:57:15Z
2020-04-03T13:59:40Z,42.805,6.029,13.3012,4.59996,2470.04,2020-4-03T16:00:18Z
2020-04-03T14:02:43Z,42.805,6.029,13.3006,4.59998,2470.063,2020-4-03T16:03:21Z
2020-04-03T14:05:46Z,42.805,6.029,13.3000,4.59992,2470.063,2020-4-03T16:06:25Z
2020-04-03T14:08:50Z,42.805,6.029,13.3004,4.59995,2470.077,2020-4-03T16:09:28Z
2020-04-03T14:11:53Z,42.805,6.029,13.3009,4.60002,2470.087,2020-4-03T16:12:32Z
2020-04-03T14:14:56Z,42.805,6.029,13.2999,4.59993,2470.077,2020-4-03T16:15:35Z
2020-04-03T14:18:00Z,42.805,6.029,13.3005,4.60003,2470.11,2020-4-03T16:18:38Z
2020-04-03T14:21:03Z,42.805,6.029,13.3011,4.59996,2470.04,2020-4-03T16:21:41Z
2020-04-03T14:24:06Z,42.805,6.029,13.3012,4.60002,2470.063,2020-4-03T16:24:45Z
2020-04-03T14:27:09Z,42.805,6.029,13.3001,4.59996,2470.087,2020-4-03T16:27:48Z
2020-04-03T14:30:13Z,42.805,6.029,13.3007,4.59997,2470.063,2020-4-03T16:30:51Z
2020-04-03T14:33:16Z,42.805,6.029,13.3004,4.59998,2470.017,2020-4-03T16:33:55Z
2020-04-03T14:36:19Z,42.805,6.029,13.3001,4.60000,2470.04,2020-4-03T16:36:58Z
2020-04-03T14:39:22Z,42.805,6.029,13.3006,4.60022,2470.053,2020-4-03T16:40:01Z
2020-04-03T14:42:25Z,42.805,6.029,13.3024,4.59997,2470.04,2020-4-03T16:43:04Z
2020-04-03T14:45:29Z,42.805,6.029,13.3035,4.60000,2470.063,2020-4-03T16:46:07Z
2020-04-03T14:48:32Z,42.805,6.029,13.3003,4.60004,2470.063,2020-4-03T16:49:11Z
2020-04-03T14:51:35Z,42.805,6.029,13.3011,4.60019,2470.11,2020-4-03T16:52:14Z
2020-04-03T14:54:39Z,42.805,6.029,13.3010,4.60007,2470.077,2020-4-03T16:55:17Z
2020-04-03T14:57:42Z,42.805,6.029,13.3000,4.60009,2470.04,2020-4-03T16:58:21Z
2020-04-03T15:00:45Z,42.805,6.029,13.3024,4.60000,2470.1,2020-4-03T17:01:24Z
2020-04-03T15:03:49Z,42.805,6.029,13.3006,4.60005,2470.04,2020-4-03T17:04:27Z
2020-04-03T15:06:52Z,42.805,6.029,13.3011,4.60006,2470.087,2020-4-03T17:07:31Z
2020-04-03T15:09:55Z,42.805,6.029,13.3004,4.60005,2470.087,2020-4-03T17:10:34Z
2020-04-03T15:12:58Z,42.805,6.029,13.3009,4.60014,2470.1,2020-4-03T17:13:37Z
2020-04-03T15:16:02Z,42.805,6.029,13.3021,4.60001,2470.087,2020-4-03T17:16:40Z